Bigfork, MN

10:45 AM CDT on March 27, 2017 (GMT -0500)
Bigfork Municipal

Weather History for KFOZ - December, 2012

Change the Weather History Date:

Saturday, December 8, 2012

  Actual Average (KGPZ) Record (KGPZ)
Temperature  
Mean Temperature 12 °F -  
Max Temperature 24 °F 22 °F 46 °F (1930)
Min Temperature 1 °F 6 °F -29 °F (2013)
Degree Days  
Heating Degree Days 52    
Moisture  
Dew Point 12 °F    
Average Humidity 80    
Maximum Humidity 86    
Minimum Humidity 73    
Precipitation  
Precipitation 0.00 in - - ()
Sea Level Pressure  
Sea Level Pressure 30.02 in    
Wind  
Wind Speed 1 mph (SE)    
Max Wind Speed 7 mph    
Max Gust Speed -    
Visibility 9 miles    
Events Snow    
Averages and records for this station are not official NWS values.
T = Trace of Precipitation, MM = Missing Value Source: NWS Daily Summary

Daily Weather History Graph

Daily Weather History Graph

Search for Another Location

Airport or City:

Trip Planner

Search our weather history database for the weather conditions in past years. The results will help you decide how hot, cold, wet, or windy it might be!

Date:

Astronomy

Dec. 08, 2012 Rise Set
Actual Time 7:51 AM CST 4:22 PM CST
Civil Twilight 7:15 AM CST 4:58 PM CST
Nautical Twilight 6:35 AM CST 5:37 PM CST
Astronomical Twilight 5:58 AM CST 6:14 PM CST
Moon 1:57 AM CST (12/8) 1:09 PM CST (12/8)
Length of Visible Light 9h 43m
Length of Day
8h 31m
Waning Crescent, 28% of the Moon is Illuminated
Dec 8
Waning Crescent
Dec 13
New
Dec 19
First Quarter
Dec 28
Full
Jan 4
Last Quarter

Hourly Weather History & Observations

Time (CST) Temp. Windchill Dew Point Humidity Pressure Visibility Wind Dir Wind Speed Gust Speed Precip Events Conditions
12:13 AM 1.4 °F - -4.0 °F 78% 30.05 in 10.0 mi Calm Calm - N/A   Scattered Clouds
12:33 AM 1.4 °F - -2.2 °F 85% 30.05 in 10.0 mi Calm Calm - N/A   Scattered Clouds
12:53 AM 3.2 °F - -2.2 °F 78% 30.05 in 10.0 mi Calm Calm - N/A   Mostly Cloudy
1:13 AM 3.2 °F - -0.4 °F 85% 30.05 in 10.0 mi Calm Calm - N/A   Overcast
1:33 AM 6.8 °F - 1.4 °F 79% 30.05 in 10.0 mi Calm Calm - N/A   Overcast
1:53 AM 6.8 °F - 3.2 °F 85% 30.05 in 10.0 mi Calm Calm - N/A   Overcast
2:13 AM 8.6 °F - 3.2 °F 79% 30.05 in 10.0 mi Calm Calm - N/A   Overcast
2:53 AM 8.6 °F - 3.2 °F 79% 30.04 in 10.0 mi Calm Calm - N/A   Overcast
3:13 AM 8.6 °F - 3.2 °F 79% 30.04 in 10.0 mi Calm Calm - N/A   Overcast
3:33 AM 8.6 °F - 5.0 °F 85% 30.03 in 10.0 mi Calm Calm - N/A   Overcast
3:53 AM 8.6 °F - 5.0 °F 85% 30.03 in 10.0 mi Calm Calm - N/A   Overcast
4:13 AM 8.6 °F - 5.0 °F 85% 30.02 in 10.0 mi Calm Calm - N/A   Overcast
4:33 AM 10.4 °F - 5.0 °F 79% 30.02 in 10.0 mi Calm Calm - N/A   Overcast
4:53 AM 10.4 °F - 6.8 °F 85% 30.02 in 10.0 mi Calm Calm - N/A   Overcast
5:13 AM 10.4 °F - 6.8 °F 85% 30.02 in 10.0 mi Calm Calm - N/A   Overcast
5:53 AM 10.4 °F - 6.8 °F 85% 30.02 in 10.0 mi Calm Calm - N/A   Overcast
6:13 AM 12.2 °F - 8.6 °F 85% 30.02 in 10.0 mi Calm Calm - N/A   Overcast
6:33 AM 12.2 °F 6.1 °F 8.6 °F 85% 30.02 in 10.0 mi East 3.5 mph - N/A   Overcast
6:53 AM 12.2 °F 6.1 °F 8.6 °F 85% 30.02 in 10.0 mi East 3.5 mph - N/A   Overcast
7:13 AM 12.2 °F 4.3 °F 8.6 °F 85% 30.02 in 10.0 mi ESE 4.6 mph - N/A   Overcast
7:33 AM 12.2 °F 6.1 °F 8.6 °F 85% 30.01 in 10.0 mi ESE 3.5 mph - N/A   Overcast
7:53 AM 12.2 °F 6.1 °F 8.6 °F 85% 30.02 in 10.0 mi ESE 3.5 mph - N/A Snow Light Snow
8:13 AM 14.0 °F - 8.6 °F 79% 30.02 in 7.0 mi Calm Calm - N/A Snow Light Snow
8:33 AM 14.0 °F - 10.4 °F 86% 30.02 in 7.0 mi Calm Calm - N/A Snow Light Snow
8:53 AM 15.8 °F 10.2 °F 10.4 °F 79% 30.02 in 10.0 mi East 3.5 mph - N/A Snow Light Snow
9:13 AM 15.8 °F 8.6 °F 10.4 °F 79% 30.01 in 5.0 mi East 4.6 mph - N/A Snow Light Snow
9:53 AM 15.8 °F 7.2 °F 12.2 °F 86% 30.02 in 10.0 mi ESE 5.8 mph - N/A Snow Light Snow
10:13 AM 17.6 °F 9.3 °F 10.4 °F 73% 30.02 in 7.0 mi SE 5.8 mph - N/A Snow Light Snow
10:33 AM 17.6 °F 10.7 °F 12.2 °F 79% 30.02 in 7.0 mi SE 4.6 mph - N/A Snow Light Snow
10:53 AM 17.6 °F 10.7 °F 12.2 °F 79% 30.02 in 10.0 mi SSE 4.6 mph - N/A Snow Light Snow
11:13 AM 19.4 °F 14.3 °F 12.2 °F 74% 30.01 in 7.0 mi SE 3.5 mph - N/A Snow Light Snow
11:33 AM 19.4 °F 11.5 °F 12.2 °F 74% 30.00 in 10.0 mi SSE 5.8 mph - N/A Snow Light Snow
11:53 AM 21.2 °F 12.6 °F 14.0 °F 74% 29.99 in 10.0 mi SSE 6.9 mph - N/A Snow Light Snow
12:13 PM 21.2 °F 14.9 °F 15.8 °F 80% 30.00 in 10.0 mi South 4.6 mph - N/A   Mostly Cloudy
12:33 PM 21.2 °F 12.6 °F 14.0 °F 74% 29.99 in 10.0 mi South 6.9 mph - N/A Snow Light Snow
12:53 PM 21.2 °F 13.6 °F 15.8 °F 80% 29.99 in 5.0 mi South 5.8 mph - N/A Snow Light Snow
1:14 PM 23.0 °F 17.0 °F 15.8 °F 74% 29.99 in 5.0 mi South 4.6 mph - N/A Snow Light Snow
1:33 PM 23.0 °F 15.8 °F 15.8 °F 74% 29.99 in 7.0 mi South 5.8 mph - N/A Snow Light Snow
1:53 PM 23.0 °F 18.4 °F 15.8 °F 74% 29.98 in 7.0 mi SSE 3.5 mph - N/A Snow Light Snow
2:13 PM 24.8 °F 20.5 °F 17.6 °F 74% 29.98 in 4.0 mi South 3.5 mph - N/A Snow Light Snow
2:33 PM 24.8 °F 19.1 °F 17.6 °F 74% 29.98 in 2.0 mi South 4.6 mph - N/A Snow Light Snow
2:53 PM 24.8 °F 19.1 °F 17.6 °F 74% 29.98 in 5.0 mi South 4.6 mph - N/A Snow Light Snow
3:13 PM 24.8 °F 20.5 °F 17.6 °F 74% 29.98 in 7.0 mi SE 3.5 mph - N/A Snow Light Snow
3:33 PM 24.8 °F 20.5 °F 17.6 °F 74% 29.99 in 5.0 mi SE 3.5 mph - N/A Snow Light Snow
3:53 PM 24.8 °F 19.1 °F 17.6 °F 74% 29.99 in 7.0 mi SE 4.6 mph - N/A Snow Light Snow
4:13 PM 24.8 °F 20.5 °F 17.6 °F 74% 29.99 in 10.0 mi ESE 3.5 mph - N/A Snow Light Snow
4:33 PM 23.0 °F - 17.6 °F 80% 30.00 in 10.0 mi Calm Calm - N/A Snow Light Snow
4:53 PM 23.0 °F - 17.6 °F 80% 30.00 in 10.0 mi Calm Calm - N/A   Overcast
5:13 PM 24.8 °F - 17.6 °F 74% 30.00 in 10.0 mi Calm Calm - N/A   Overcast
5:33 PM 23.0 °F - 17.6 °F 80% 30.01 in 10.0 mi Calm Calm - N/A   Overcast
5:53 PM 24.8 °F - 19.4 °F 80% 30.01 in 10.0 mi Calm Calm - N/A   Overcast
6:13 PM 23.0 °F - 19.4 °F 86% 30.02 in 10.0 mi Calm Calm - N/A   Overcast
6:33 PM 23.0 °F - 19.4 °F 86% 30.02 in 10.0 mi Calm Calm - N/A Snow Light Snow
6:53 PM 23.0 °F - 17.6 °F 80% 30.02 in 10.0 mi Calm Calm - N/A   Overcast
7:13 PM 23.0 °F - 17.6 °F 80% 30.02 in 10.0 mi Calm Calm - N/A   Overcast
7:33 PM 23.0 °F 18.4 °F 17.6 °F 80% 30.02 in 10.0 mi ESE 3.5 mph - N/A   Overcast
7:53 PM 23.0 °F - 17.6 °F 80% 30.03 in 10.0 mi Calm Calm - N/A   Overcast
8:13 PM 24.8 °F - 17.6 °F 74% 30.03 in 10.0 mi Calm Calm - N/A Snow Light Snow
8:53 PM 24.8 °F 20.5 °F 19.4 °F 80% 30.04 in 10.0 mi SSE 3.5 mph - N/A   Overcast
9:13 PM 24.8 °F - 19.4 °F 80% 30.04 in 10.0 mi Calm Calm - N/A Snow Light Snow
9:33 PM 24.8 °F - 19.4 °F 80% 30.05 in 10.0 mi Calm Calm - N/A   Overcast
9:53 PM 24.8 °F - 19.4 °F 80% 30.05 in 10.0 mi Calm Calm - N/A   Overcast
10:13 PM 24.8 °F 20.5 °F 19.4 °F 80% 30.04 in 10.0 mi ESE 3.5 mph - N/A Snow Light Snow
10:33 PM 24.8 °F - 19.4 °F 80% 30.05 in 10.0 mi Calm Calm - N/A   Mostly Cloudy
10:53 PM 24.8 °F - 19.4 °F 80% 30.05 in 10.0 mi Calm Calm - N/A   Mostly Cloudy
11:13 PM 24.8 °F 20.5 °F 19.4 °F 80% 30.05 in 10.0 mi ESE 3.5 mph - N/A   Overcast
11:33 PM 24.8 °F - 19.4 °F 80% 30.05 in 10.0 mi Calm Calm - N/A   Mostly Cloudy
11:53 PM 24.8 °F - 19.4 °F 80% 30.05 in 10.0 mi Calm Calm - N/A   Scattered Clouds